Regional Weather Roundup
Issued by NWS Bismarck, ND

Home | Current Version | Previous Version | Text Only | Print | Product List | Glossary On
Versions: 1 2 3 4 5 6 7 8 9 10 11 12 13 14 15 16 17 18 19 20 21 22 23 24 25 26 27 28 29 30 31 32 33 34 35 36 37 38 39 40 41 42 43 44 45 46 47 48 49 50
000
ASUS43 KBIS 300910
RWRBIS

NWR BROADCAST TEXT
NATIONAL WEATHER SERVICE BISMARCK ND
400 AM CDT SUN AUG 30 2015

NOTE: "FAIR" INDICATES FEW OR NO CLOUDS BELOW 12,000 FEET WITH NO
SIGNIFICANT WEATHER AND/OR OBSTRUCTIONS TO VISIBILITY.


CITY           SKY/WX    TMP DP  RH WIND       PRES   REMARKS
WILLISTON      CLOUDY    68  57  68 CALM      29.67F HAZE
MINOT          MOCLDY    75  58  55 CALM      29.70S
MINOT AFB      MOCLDY    68  62  83 CALM      29.70S
BISMARCK       PTCLDY    66  63  90 E7        29.77F
DICKINSON      PTCLDY    65  51  60 S10       29.74F
GARRISON         N/A     67  61  81 E5        29.74F
HETTINGER ARPT PTCLDY    64  51  62 E5        29.80F
JAMESTOWN      CLOUDY    67  66  97 S10       29.80S FOG
CROSBY         FAIR      64  55  72 SE6       29.67F HAZE
HARVEY         FAIR      66  64  94 S6        29.76S
HAZEN          FAIR      66  55  68 CALM      29.74F
LINTON         FAIR      64  64 100 SE16      29.79S
OAKES            N/A     64  64 100 S10       29.84F
RUGBY          FAIR      70  64  83 NE6       29.74S
STANLEY        FAIR      68  57  68 CALM      29.73F
$$

CITY           SKY/WX    TMP DP  RH WIND       PRES   REMARKS
GRAND FORKS    MOCLDY    67  65  93 S10       29.78S
GRAND FORKS AF MOCLDY    67  67  97 SE7       29.77F
DEVILS LAKE    MOCLDY    72  63  73 S7        29.75F
FARGO          PTCLDY    66  62  87 S12       29.83S
CAVALIER       FAIR      66  66 100 CALM      29.76S FOG
GRAFTON        FAIR      66  66 100 SE9       29.77F
GWINNER          N/A     66  66 100 SW9       29.84F
LANGDON        FAIR      68  68 100 S6        29.78F
ROLLA          CLOUDY    66  63  88 S7        29.77S
WALHALLA       FAIR      64  64 100 MISG      29.76S FOG
$$

CITY           SKY/WX    TMP DP  RH WIND       PRES   REMARKS
ABERDEEN       CLEAR     65  63  93 S13       29.85F
MOBRIDGE       MOCLDY    68  65  90 SE10      29.79F
BUFFALO          N/A     66  50  56 SE9       29.74F
RAPID CITY     CLEAR     66  45  46 CALM      29.87F
GLASGOW        PTCLDY    75  44  33 NE12      29.64F HAZE
SIDNEY         CLOUDY    72  52  49 SW8       29.66F
WOLF POINT     MOCLDY    64  53  67 CALM      29.65F HAZE
GLENDIVE       CLOUDY    72  48  43 S7        29.70F
MILES CITY     MOCLDY    75  45  34 S8        29.68S
BAKER          MOCLDY    66  49  54 SE7       29.75F
$$

CITY           SKY/WX    TMP DP  RH WIND       PRES   REMARKS
BILLINGS       CLOUDY    76  42  29 SW12      29.78F
GREAT FALLS    CLOUDY    63  52  67 CALM      29.81F HAZE
REGINA         CLOUDY    70  52  52 E8        29.67F SMOKE
ESTEVAN        CLOUDY    66  55  68 E13       29.67F SMOKE
$$




USA.gov is the U.S. government's official web portal to all federal, state and local government web resources and services.